IBE02SJ LEMD-MROC

Flight info

Callsign IBE02SJ
Flight time N/A
Altitude 34000
Route BARDI DCT TUNAV DCT KOMUT/M080F340 DCT 37N020W 35N030W 3130N04000W 26N050W DCT RKDIA DCT DAWIN/N0475F340 DCT MELLA DCT PALAS DCT OROSA UM597 ERIKO DCT TIMRO DCT DAGAS DCT ISEBA CUARE4I
Aircraft A332/H-SDE3GHIJ2J3J5M1RVWXY/LB2D1

Departure

Time 2026-05-05 05:56
Airport Adolfo Suárez Madrid–Barajas Airport (LEMD)

Arrival

Time N/A
Airport Juan Santamaría International Airport (MROC)
Time Latitude Longitude Altitude Speed Heading
2026-05-05 05:05 40.49634 -3.56363 1968 ft 0 kts 271°
2026-05-05 05:48 40.49635 -3.56396 1971 ft 8 kts 271°
2026-05-05 05:48 40.49689 -3.56456 1973 ft 15 kts 342°
2026-05-05 05:49 40.49813 -3.56455 1975 ft 19 kts
2026-05-05 05:49 40.49932 -3.56441 1972 ft 11 kts 31°
2026-05-05 05:49 40.49940 -3.56381 1970 ft 8 kts 90°
2026-05-05 05:49 40.49939 -3.56252 1965 ft 8 kts 90°
2026-05-05 05:50 40.49939 -3.56127 1962 ft 20 kts 89°
2026-05-05 05:50 40.49940 -3.56089 1961 ft 0 kts 89°
2026-05-05 05:55 40.49941 -3.56067 1961 ft 8 kts 86°
2026-05-05 05:55 40.49989 -3.55956 1963 ft 19 kts 44°
2026-05-05 05:55 40.50156 -3.55923 1964 ft 37 kts
2026-05-05 05:55 40.50614 -3.55924 1974 ft 94 kts
2026-05-05 05:56 40.51452 -3.55935 1954 ft 146 kts
2026-05-05 05:56 40.52602 -3.55943 2090 ft 178 kts 359°
2026-05-05 05:56 40.53864 -3.55927 2715 ft 180 kts
2026-05-05 05:56 40.55109 -3.55927 3442 ft 179 kts 359°
2026-05-05 05:57 40.55956 -3.55935 3629 ft 188 kts 358°
2026-05-05 05:57 40.57315 -3.55950 3820 ft 204 kts 358°
2026-05-05 05:57 40.59342 -3.55863 3994 ft 235 kts 10°
2026-05-05 05:57 40.60431 -3.55504 4269 ft 242 kts 14°
2026-05-05 05:58 40.62632 -3.55004 5034 ft 245 kts 353°
2026-05-05 05:58 40.63736 -3.55404 5383 ft 247 kts 330°
2026-05-05 05:58 40.64987 -3.56941 5976 ft 248 kts 304°
2026-05-05 05:58 40.65925 -3.58815 6598 ft 249 kts 300°
2026-05-05 05:59 40.66831 -3.60766 7244 ft 250 kts 299°
2026-05-05 05:59 40.67690 -3.62780 7916 ft 251 kts 290°
2026-05-05 05:59 40.68028 -3.65007 8555 ft 250 kts 265°
2026-05-05 05:59 40.67552 -3.67220 9127 ft 255 kts 243°
2026-05-05 06:00 40.66667 -3.69269 9740 ft 259 kts 239°
2026-05-05 06:00 40.65714 -3.71291 10354 ft 260 kts 239°
2026-05-05 06:00 40.64881 -3.73401 10977 ft 261 kts 251°
2026-05-05 06:00 40.64531 -3.75779 11410 ft 271 kts 264°
2026-05-05 06:01 40.64436 -3.78306 11638 ft 288 kts 267°
2026-05-05 06:01 40.64388 -3.81011 11867 ft 304 kts 268°
2026-05-05 06:01 40.64337 -3.83868 12100 ft 319 kts 268°
2026-05-05 06:01 40.64284 -3.86848 12397 ft 331 kts 268°
2026-05-05 06:02 40.64243 -3.89900 12884 ft 336 kts 268°
2026-05-05 06:02 40.64202 -3.92993 13506 ft 338 kts 268°
2026-05-05 06:02 40.64159 -3.96094 14089 ft 339 kts 268°
2026-05-05 06:02 40.64115 -3.99206 14648 ft 340 kts 268°
2026-05-05 06:03 40.64068 -4.02339 15197 ft 341 kts 268°
2026-05-05 06:03 40.64021 -4.05469 15725 ft 343 kts 268°
2026-05-05 06:03 40.63972 -4.08607 16251 ft 344 kts 268°
2026-05-05 06:03 40.63932 -4.11125 16683 ft 345 kts 268°
2026-05-05 06:04 40.63881 -4.14282 17194 ft 347 kts 267°
2026-05-05 06:04 40.63829 -4.17468 17703 ft 348 kts 267°
2026-05-05 06:04 40.63775 -4.20665 18229 ft 350 kts 267°
2026-05-05 06:04 40.63721 -4.23870 18685 ft 351 kts 267°
2026-05-05 06:05 40.63666 -4.27081 19172 ft 351 kts 267°
2026-05-05 06:05 40.63610 -4.30297 19656 ft 351 kts 267°
2026-05-05 06:05 40.63552 -4.33518 20106 ft 351 kts 266°
2026-05-05 06:05 40.63494 -4.36733 20548 ft 352 kts 266°
2026-05-05 06:06 40.63434 -4.39965 21000 ft 352 kts 266°
2026-05-05 06:06 40.63375 -4.43150 21442 ft 353 kts 266°
2026-05-05 06:06 40.63314 -4.46395 21866 ft 354 kts 266°
2026-05-05 06:06 40.63252 -4.49636 22301 ft 354 kts 266°
2026-05-05 06:07 40.63189 -4.52882 22730 ft 355 kts 266°
2026-05-05 06:07 40.63125 -4.56136 23151 ft 356 kts 266°
2026-05-05 06:07 40.63059 -4.59403 23544 ft 358 kts 266°
2026-05-05 06:07 40.62993 -4.62645 23827 ft 360 kts 266°
2026-05-05 06:08 40.62925 -4.65963 24141 ft 361 kts 266°
2026-05-05 06:08 40.62856 -4.69279 24465 ft 362 kts 266°
2026-05-05 06:08 40.62786 -4.72590 24789 ft 363 kts 266°
2026-05-05 06:08 40.62715 -4.75921 25087 ft 364 kts 266°
2026-05-05 06:09 40.62642 -4.79254 25392 ft 365 kts 266°
2026-05-05 06:09 40.62568 -4.82603 25686 ft 366 kts 266°
2026-05-05 06:09 40.62495 -4.85917 25978 ft 367 kts 266°
2026-05-05 06:09 40.62418 -4.89294 26271 ft 368 kts 266°
2026-05-05 06:10 40.62340 -4.92669 26555 ft 369 kts 266°
2026-05-05 06:10 40.62262 -4.96050 26873 ft 371 kts 266°
2026-05-05 06:10 40.62181 -4.99460 27075 ft 374 kts 266°
2026-05-05 06:10 40.62100 -5.02884 27335 ft 375 kts 266°
2026-05-05 06:11 40.62018 -5.06322 27631 ft 376 kts 266°
2026-05-05 06:11 40.61934 -5.09766 27912 ft 377 kts 266°
2026-05-05 06:11 40.61849 -5.13220 28173 ft 378 kts 266°
2026-05-05 06:11 40.61763 -5.16685 28445 ft 379 kts 266°
2026-05-05 06:12 40.61675 -5.20173 28719 ft 381 kts 266°
2026-05-05 06:12 40.61586 -5.23653 28977 ft 382 kts 266°
2026-05-05 06:12 40.61495 -5.27156 29215 ft 383 kts 266°
2026-05-05 06:12 40.61403 -5.30662 29478 ft 384 kts 266°
2026-05-05 06:13 40.61311 -5.34131 29745 ft 385 kts 266°
2026-05-05 06:13 40.61217 -5.37665 29984 ft 386 kts 266°
2026-05-05 06:13 40.61121 -5.41201 30219 ft 388 kts 266°
2026-05-05 06:13 40.61023 -5.44800 30390 ft 390 kts 266°
2026-05-05 06:14 40.60925 -5.48328 30546 ft 392 kts 266°
2026-05-05 06:14 40.60825 -5.51914 30712 ft 394 kts 266°
2026-05-05 06:14 40.60723 -5.55523 30868 ft 395 kts 266°
2026-05-05 06:14 40.60619 -5.59146 31027 ft 397 kts 266°
2026-05-05 06:15 40.60514 -5.62787 31222 ft 398 kts 266°
2026-05-05 06:15 40.60407 -5.66428 31447 ft 398 kts 266°
2026-05-05 06:15 40.60299 -5.70074 31663 ft 398 kts 266°
2026-05-05 06:15 40.60190 -5.73735 31826 ft 400 kts 266°
2026-05-05 06:16 40.60079 -5.77409 31966 ft 402 kts 266°
2026-05-05 06:16 40.59968 -5.81041 32178 ft 402 kts 266°
2026-05-05 06:16 40.59855 -5.84721 32399 ft 402 kts 266°
2026-05-05 06:16 40.59740 -5.88408 32610 ft 403 kts 266°
2026-05-05 06:17 40.59624 -5.92095 32787 ft 403 kts 266°
2026-05-05 06:17 40.59507 -5.95781 32969 ft 404 kts 266°
2026-05-05 06:17 40.59388 -5.99473 33157 ft 404 kts 266°
2026-05-05 06:17 40.59268 -6.03170 33329 ft 404 kts 266°
2026-05-05 06:18 40.59147 -6.06866 33516 ft 405 kts 266°
2026-05-05 06:18 40.59025 -6.10570 33675 ft 406 kts 266°
2026-05-05 06:18 40.58776 -6.17990 33921 ft 409 kts 266°
2026-05-05 06:19 40.58648 -6.21748 34105 ft 409 kts 266°
2026-05-05 06:19 40.58521 -6.25479 34254 ft 409 kts 266°
2026-05-05 06:19 40.58302 -6.29207 34409 ft 409 kts 262°
2026-05-05 06:19 40.57751 -6.32886 34544 ft 410 kts 257°
2026-05-05 06:20 40.57021 -6.36518 34685 ft 410 kts 255°
2026-05-05 06:20 40.56226 -6.40124 34816 ft 411 kts 254°
2026-05-05 06:20 40.55397 -6.43730 34953 ft 411 kts 254°
2026-05-05 06:20 40.54570 -6.47289 35092 ft 412 kts 254°
2026-05-05 06:21 40.53726 -6.50928 34984 ft 419 kts 255°
2026-05-05 06:21 40.52880 -6.54607 35009 ft 421 kts 255°
2026-05-05 06:21 40.52035 -6.58297 35190 ft 420 kts 255°
2026-05-05 06:21 40.51196 -6.61978 35359 ft 420 kts 255°
2026-05-05 06:22 40.50360 -6.65650 35499 ft 420 kts 255°
2026-05-05 06:22 40.49523 -6.69330 35605 ft 420 kts 255°
2026-05-05 06:22 40.48694 -6.72968 35746 ft 420 kts 255°
2026-05-05 06:22 40.47853 -6.76653 35856 ft 421 kts 255°
2026-05-05 06:23 40.47012 -6.80329 35974 ft 421 kts 255°
2026-05-05 06:23 40.46167 -6.84017 36087 ft 421 kts 255°
2026-05-05 06:23 40.44471 -6.91398 36276 ft 422 kts 255°
2026-05-05 06:24 40.43620 -6.95091 36415 ft 422 kts 255°
2026-05-05 06:24 40.42766 -6.98794 36515 ft 423 kts 255°
2026-05-05 06:24 40.41913 -7.02482 36625 ft 423 kts 255°
2026-05-05 06:24 40.41068 -7.06134 36739 ft 423 kts 255°
2026-05-05 06:25 40.40211 -7.09828 36845 ft 423 kts 255°
2026-05-05 06:25 40.39351 -7.13531 36945 ft 424 kts 255°
2026-05-05 06:25 40.37629 -7.20927 37150 ft 424 kts 255°
2026-05-05 06:26 40.36765 -7.24626 37285 ft 423 kts 255°
2026-05-05 06:26 40.35904 -7.28311 37437 ft 422 kts 255°
2026-05-05 06:26 40.35038 -7.32008 37542 ft 423 kts 255°
2026-05-05 06:26 40.34173 -7.35697 37615 ft 423 kts 255°
2026-05-05 06:27 40.31570 -7.46763 37883 ft 424 kts 255°
2026-05-05 06:28 40.29826 -7.54146 38034 ft 425 kts 255°
2026-05-05 06:28 40.28081 -7.61509 38094 ft 427 kts 255°
2026-05-05 06:29 40.26307 -7.68977 38098 ft 431 kts 255°
2026-05-05 06:29 40.24512 -7.76505 38095 ft 434 kts 255°
2026-05-05 06:30 40.22700 -7.84074 38096 ft 436 kts 255°
2026-05-05 06:30 40.20880 -7.91652 38103 ft 436 kts 255°
2026-05-05 06:31 40.19064 -7.99190 38098 ft 434 kts 255°
2026-05-05 06:31 40.17258 -8.06661 38106 ft 432 kts 255°
2026-05-05 06:32 40.15447 -8.14135 38101 ft 431 kts 255°
2026-05-05 06:32 40.13630 -8.21611 38102 ft 432 kts 255°
2026-05-05 06:33 40.11807 -8.29085 38102 ft 432 kts 255°
2026-05-05 06:33 40.09976 -8.36565 38098 ft 431 kts 255°
2026-05-05 06:34 40.08148 -8.44011 38098 ft 430 kts 255°
2026-05-05 06:34 40.06318 -8.51441 38100 ft 430 kts 255°
2026-05-05 06:35 40.04491 -8.58837 38102 ft 430 kts 255°
2026-05-05 06:35 40.02650 -8.66267 38099 ft 430 kts 255°
2026-05-05 06:36 40.00806 -8.73687 38092 ft 430 kts 255°
2026-05-05 06:36 39.98949 -8.81138 38102 ft 431 kts 255°
2026-05-05 06:37 39.97090 -8.88569 38102 ft 431 kts 255°
2026-05-05 06:37 39.95237 -8.95953 38101 ft 431 kts 255°
2026-05-05 06:38 39.93367 -9.03386 38101 ft 431 kts 255°
2026-05-05 06:38 39.91491 -9.10815 38089 ft 432 kts 255°
2026-05-05 06:39 39.89604 -9.18270 38104 ft 434 kts 255°
2026-05-05 06:39 39.87706 -9.25741 38101 ft 434 kts 255°
2026-05-05 06:40 39.85819 -9.33147 38107 ft 433 kts 255°
2026-05-05 06:40 39.83916 -9.40591 38108 ft 433 kts 255°
2026-05-05 06:41 39.82009 -9.48031 38097 ft 433 kts 255°
2026-05-05 06:41 39.80094 -9.55480 38108 ft 434 kts 255°
2026-05-05 06:42 39.78180 -9.62904 38105 ft 435 kts 255°
2026-05-05 06:42 39.76251 -9.70357 38105 ft 435 kts 255°
2026-05-05 06:43 39.74317 -9.77810 38108 ft 435 kts 255°
2026-05-05 06:43 39.72387 -9.85227 38105 ft 435 kts 255°
2026-05-05 06:44 39.70448 -9.92657 38113 ft 434 kts 255°
2026-05-05 06:44 39.68834 -9.98822 38121 ft 434 kts 254°
2026-05-05 06:45 39.66879 -10.06268 38113 ft 434 kts 254°
2026-05-05 06:45 39.64940 -10.13635 38113 ft 434 kts 254°
2026-05-05 06:46 39.62982 -10.21051 38101 ft 434 kts 254°
2026-05-05 06:46 39.61021 -10.28455 38121 ft 433 kts 254°
2026-05-05 06:47 39.59058 -10.35847 38122 ft 433 kts 254°
2026-05-05 06:47 39.57090 -10.43236 38128 ft 433 kts 254°
2026-05-05 06:48 39.55117 -10.50618 38113 ft 433 kts 254°
2026-05-05 06:48 39.53141 -10.57993 38107 ft 432 kts 254°
2026-05-05 06:49 39.51179 -10.65294 38128 ft 431 kts 254°
2026-05-05 06:49 39.49206 -10.72612 38131 ft 430 kts 254°
2026-05-05 06:50 39.47225 -10.79942 38134 ft 430 kts 254°
2026-05-05 06:50 39.45242 -10.87258 38135 ft 431 kts 254°
2026-05-05 06:51 39.43264 -10.94533 38128 ft 431 kts 253°
2026-05-05 06:51 39.41271 -11.01845 38132 ft 431 kts 253°
2026-05-05 06:52 39.39266 -11.09176 38150 ft 431 kts 253°
2026-05-05 06:52 39.37272 -11.16451 38137 ft 431 kts 253°
2026-05-05 06:53 39.35264 -11.23753 38136 ft 431 kts 253°
2026-05-05 06:53 39.33249 -11.31057 38152 ft 431 kts 253°
2026-05-05 06:54 39.31198 -11.38341 38138 ft 432 kts 251°
2026-05-05 06:54 39.28832 -11.45502 38143 ft 433 kts 249°
2026-05-05 06:55 39.26348 -11.52597 38148 ft 433 kts 249°
2026-05-05 06:55 39.23872 -11.59698 38146 ft 433 kts 249°
2026-05-05 06:56 39.21438 -11.66748 38135 ft 433 kts 249°
2026-05-05 06:56 39.18994 -11.73840 38149 ft 431 kts 249°
2026-05-05 06:57 39.16556 -11.80904 38154 ft 431 kts 249°
2026-05-05 06:57 39.14113 -11.87960 38154 ft 431 kts 249°
2026-05-05 06:58 39.11663 -11.95019 38156 ft 431 kts 249°
2026-05-05 06:58 39.09208 -12.02072 38157 ft 431 kts 249°
2026-05-05 06:59 39.06746 -12.09130 38155 ft 432 kts 249°
2026-05-05 06:59 39.04294 -12.16143 38157 ft 433 kts 249°
2026-05-05 07:00 39.01815 -12.23214 38162 ft 433 kts 249°
2026-05-05 07:00 38.99335 -12.30272 38167 ft 433 kts 249°
2026-05-05 07:01 38.96850 -12.37326 38167 ft 433 kts 249°
2026-05-05 07:01 38.94378 -12.44327 38165 ft 433 kts 248°
2026-05-05 07:02 38.91883 -12.51378 38167 ft 433 kts 248°
2026-05-05 07:02 38.89380 -12.58430 38157 ft 433 kts 248°
2026-05-05 07:03 38.86885 -12.65447 38169 ft 431 kts 248°
2026-05-05 07:03 38.84388 -12.72449 38170 ft 431 kts 248°
2026-05-05 07:04 38.81909 -12.79389 38170 ft 431 kts 248°
2026-05-05 07:04 38.79404 -12.86384 38173 ft 431 kts 248°